Basel/Mulhouse/Freiburg

Airport
ICAO code: 
LFSB
Summary
ICAO Region: 
EUR
Territory: 
Location: 
Saint-Louis, Alsace,
Coordinates: 
Aerial View: 
47° 35' 24" N, 7° 31' 45.001" E
Metar
Observation
LFSB 060330Z AUTO 15003KT 7000 SCT014 OVC022 02/01 Q1011 TEMPO 4000 -SN BKN006
Station
Bale-Mulhouse
Date/Time
2021-12-06 03:30:00
Wind direction
150°
Wind speed
03 kts
Lowest cloud amount
scattered clouds
Temperature
2°C
Dew point
1°C
Humidity
93%
QNH
1011 hPa
Weather condition
n/a

Description

EuroAirport Basel-Mulhouse-Freiburg is an international airport 6 km northwest of Basel (Switzerland), 22 km southeast of Mulhouse (France), and 70 km south of Freiburg (Germany). It is located in France, on the administrative territory of the commune of Saint-Louis near the Swiss and German borders.

Climatology

Temperate Marine climate/Oceanic climate (Köppen climate classification Cfb). Moderately cool summer and comparatively warm winter. Prevailing south-westerly winds from the Atlantic Ocean.

Runways

Designator Length Width Surface Rops
8/26 1819 60 CON Yes/Yes
15/33 3900 60 CON Yes/Yes
Airport map: 
Aerial View: 

Accidents and Serious Incidents at or in the vicinity of LFSB

SKYbrary Partners:

Safety knowledge contributed by: